DECAYED

CZ-5 R/B, 66143 (Decayed)

Orbit data source: Space-Track

CZ-5 R/B, 66143 was space debris in LEO originally from a launch on Thu, 23 Oct 2025 UTC launched from the Wenchang Satellite Launch Center (WSC). Debris objects in space refer to the collection of defunct objects orbiting the Earth. Examples of debris include non-operational satellites, rocket bodies, and fragments generated from explosions, collisions, or faulty payload assembly.

Not visible in the next 10 days
Identifier
66143, 2025-238B
Orbit
Decayed
Country
Flag of CNCN / PRC
Related business
Manufacturer
CALT
Mission
Decayed spacecraft
Bus & Motor
CZ-5 H5-2, Unknown motor
Mass
5,100 kg wet, 5,100 kg dry
Launch date (UTC)
2025-10-23 (9 months ago)
Launch vehicle
Unknown
Launch site
Wenchang Satellite Launch Center (WSC)
Object type
Payload
Rocket body
Debris
Shape & HBR
Step Cyl, 8.0 m
Radar Cross Section
46.821 m², Large (>1 m²)

Expand to show TLE details & history
Last TLE update: 1 month ago

TLE from 1 month ago
0 CZ-5 R/B
1 66143U 25238B   26156.12528529  .16664264 -55202-4  64452-3 0  9992
2 66143  15.8866 321.6133 1255762  30.9258 335.9329 13.58074085 11265
Epoch: 2026-06-05T03:00Z
TLE epoch observation values (Epoch: 2026-06-05T03:00:24.649Z)
Latitude
Longitude
22.95091°
Altitude
212.882 km
Speed
8.203 km/s
True Right ascension
21h 26m 27s
True Declination
0° 00' 00"
Sunlit
Object was in full shadow at epoch
Visualization orbit readout
Latitude
Unknown
Longitude
Unknown
Altitude
Unknown
Speed
Unknown
Apparent Right ascension
Unknown
Apparent Declination
Unknown
Sunlit
N/A
Visualization observer readout
Local Sidereal Time
05:34:36
Azimuth
Unknown
Elevation
Unknown
Doppler factor
Unknown
Orbital elements
Apogee altitude
1,980.661 km
Perigee altitude
115.543 km
Semi-major axis
7,426.239 km
Eccentricity
0.12558
Inclination
15.8866°
RAAN
321.6133°
Arg. of periapsis
30.9258°
True anomaly
329.1071°
Mean anomaly
335.9329°
Eccentric anomaly
332.6245°
Mean motion
3.39148 °/min
Orbital period
106.15 mins
BSTAR
0.00064452
Loading maneuver chart data...
Computing Atmospheric mass density...
Loading historical data...
Loading historical data...
Loading historical data...
Loading historical data...
Loading historical data...
Loading historical data...
Loading historical data...
Other satellites on launch #238 in the year 2025 (2025-10-23 UTC)

Documentation

Showing up to 5 results
|